Year,Month,Day,Hour,Minute,Value (Times are PST for temperature in C)
2017,06,23,00,00,12.90
2017,06,23,00,01,12.90
2017,06,23,00,02,12.90
2017,06,23,00,03,12.80
2017,06,23,00,04,12.80
2017,06,23,00,05,12.80
2017,06,23,00,06,12.70
2017,06,23,00,07,12.70
2017,06,23,00,08,12.70
2017,06,23,00,09,12.60
2017,06,23,00,10,12.60
2017,06,23,00,11,12.60
2017,06,23,00,12,12.60
2017,06,23,00,13,12.60
2017,06,23,00,14,12.50
2017,06,23,00,15,12.50
2017,06,23,00,16,12.50
2017,06,23,00,17,12.50
2017,06,23,00,18,12.50
2017,06,23,00,19,12.50
2017,06,23,00,20,12.50
2017,06,23,00,21,12.50
2017,06,23,00,22,12.50
2017,06,23,00,23,12.50
2017,06,23,00,24,12.50
2017,06,23,00,25,12.50
2017,06,23,00,26,12.50
2017,06,23,00,27,12.50
2017,06,23,00,28,12.50
2017,06,23,00,29,12.50
2017,06,23,00,30,12.50
2017,06,23,00,31,12.50
2017,06,23,00,32,12.50
2017,06,23,00,33,12.40
2017,06,23,00,34,12.40
2017,06,23,00,35,12.40
2017,06,23,00,36,12.40
2017,06,23,00,37,12.40
2017,06,23,00,38,12.40
2017,06,23,00,39,12.40
2017,06,23,00,40,12.40
2017,06,23,00,41,12.40
2017,06,23,00,42,12.30
2017,06,23,00,43,12.30
2017,06,23,00,44,12.30
2017,06,23,00,45,12.20
2017,06,23,00,46,12.20
2017,06,23,00,47,12.20
2017,06,23,00,48,12.20
2017,06,23,00,49,12.10
2017,06,23,00,50,12.10
2017,06,23,00,51,12.10
2017,06,23,00,52,12.10
2017,06,23,00,53,12.00
2017,06,23,00,54,12.00
2017,06,23,00,55,12.00
2017,06,23,00,56,12.00
2017,06,23,00,57,12.10
2017,06,23,00,58,12.10
2017,06,23,00,59,12.10
2017,06,23,01,00,12.00
2017,06,23,01,01,12.00
2017,06,23,01,02,12.00
2017,06,23,01,03,11.90
2017,06,23,01,04,11.90
2017,06,23,01,05,11.90
2017,06,23,01,06,11.80
2017,06,23,01,07,11.80
2017,06,23,01,08,11.80
2017,06,23,01,09,11.70
2017,06,23,01,10,11.70
2017,06,23,01,11,11.70
2017,06,23,01,12,11.70
2017,06,23,01,13,11.60
2017,06,23,01,14,11.60
2017,06,23,01,15,11.60
2017,06,23,01,16,11.60
2017,06,23,01,17,11.60
2017,06,23,01,18,11.60
2017,06,23,01,19,11.50
2017,06,23,01,20,11.50
2017,06,23,01,21,11.50
2017,06,23,01,22,11.50
2017,06,23,01,23,11.50
2017,06,23,01,24,11.50
2017,06,23,01,25,11.50
2017,06,23,01,26,11.50
2017,06,23,01,27,11.50
2017,06,23,01,28,11.50
2017,06,23,01,29,11.50
2017,06,23,01,30,11.50
2017,06,23,01,31,11.40
2017,06,23,01,32,11.40
2017,06,23,01,33,11.40
2017,06,23,01,34,11.40
2017,06,23,01,35,11.40
2017,06,23,01,36,11.30
2017,06,23,01,37,11.30
2017,06,23,01,38,11.30
2017,06,23,01,39,11.30
2017,06,23,01,40,11.30
2017,06,23,01,41,11.20
2017,06,23,01,42,11.20
2017,06,23,01,43,11.20
2017,06,23,01,44,11.20
2017,06,23,01,45,11.20
2017,06,23,01,46,11.20
2017,06,23,01,47,11.10
2017,06,23,01,48,11.10
2017,06,23,01,49,11.10
2017,06,23,01,50,11.10
2017,06,23,01,51,11.10
2017,06,23,01,52,11.10
2017,06,23,01,53,11.10
2017,06,23,01,54,11.10
2017,06,23,01,55,11.10
2017,06,23,01,56,11.10
2017,06,23,01,57,11.10
2017,06,23,01,58,11.10
2017,06,23,01,59,11.10
2017,06,23,02,00,11.10
2017,06,23,02,01,11.00
2017,06,23,02,02,11.00
2017,06,23,02,03,11.00
2017,06,23,02,04,11.00
2017,06,23,02,05,11.00
2017,06,23,02,06,11.00
2017,06,23,02,07,11.00
2017,06,23,02,08,10.90
2017,06,23,02,09,10.90
2017,06,23,02,10,10.90
2017,06,23,02,11,10.90
2017,06,23,02,12,10.90
2017,06,23,02,13,10.80
2017,06,23,02,14,10.80
2017,06,23,02,15,10.80
2017,06,23,02,16,10.80
2017,06,23,02,17,10.80
2017,06,23,02,18,10.80
2017,06,23,02,19,10.80
2017,06,23,02,20,10.80
2017,06,23,02,21,10.80
2017,06,23,02,22,10.70
2017,06,23,02,23,10.70
2017,06,23,02,24,10.70
2017,06,23,02,25,10.70
2017,06,23,02,26,10.70
2017,06,23,02,27,10.70
2017,06,23,02,28,10.70
2017,06,23,02,29,10.70
2017,06,23,02,30,10.70
2017,06,23,02,31,10.70
2017,06,23,02,32,10.70
2017,06,23,02,33,10.70
2017,06,23,02,34,10.70
2017,06,23,02,35,10.70
2017,06,23,02,36,10.70
2017,06,23,02,37,10.70
2017,06,23,02,38,10.60
2017,06,23,02,39,10.60
2017,06,23,02,40,10.60
2017,06,23,02,41,10.60
2017,06,23,02,42,10.60
2017,06,23,02,43,10.60
2017,06,23,02,44,10.60
2017,06,23,02,45,10.60
2017,06,23,02,46,10.50
2017,06,23,02,47,10.50
2017,06,23,02,48,10.50
2017,06,23,02,49,10.50
2017,06,23,02,50,10.50
2017,06,23,02,51,10.50
2017,06,23,02,52,10.50
2017,06,23,02,53,10.50
2017,06,23,02,54,10.50
2017,06,23,02,55,10.50
2017,06,23,02,56,10.50
2017,06,23,02,57,10.60
2017,06,23,02,58,10.50
2017,06,23,02,59,10.50
2017,06,23,03,00,10.50
2017,06,23,03,01,10.50
2017,06,23,03,02,10.50
2017,06,23,03,03,10.50
2017,06,23,03,04,10.40
2017,06,23,03,05,10.40
2017,06,23,03,06,10.40
2017,06,23,03,07,10.40
2017,06,23,03,08,10.40
2017,06,23,03,09,10.40
2017,06,23,03,10,10.40
2017,06,23,03,11,10.40
2017,06,23,03,12,10.40
2017,06,23,03,13,10.40
2017,06,23,03,14,10.40
2017,06,23,03,15,10.40
2017,06,23,03,16,10.40
2017,06,23,03,17,10.40
2017,06,23,03,18,10.30
2017,06,23,03,19,10.30
2017,06,23,03,20,10.30
2017,06,23,03,21,10.30
2017,06,23,03,22,10.30
2017,06,23,03,23,10.30
2017,06,23,03,24,10.30
2017,06,23,03,25,10.30
2017,06,23,03,26,10.30
2017,06,23,03,27,10.30
2017,06,23,03,28,10.30
2017,06,23,03,29,10.30
2017,06,23,03,30,10.20
2017,06,23,03,31,10.20
2017,06,23,03,32,10.20
2017,06,23,03,33,10.20
2017,06,23,03,34,10.10
2017,06,23,03,35,10.10
2017,06,23,03,36,10.10
2017,06,23,03,37,10.10
2017,06,23,03,38,10.10
2017,06,23,03,39,10.10
2017,06,23,03,40,10.10
2017,06,23,03,41,10.10
2017,06,23,03,42,10.00
2017,06,23,03,43,10.00
2017,06,23,03,44,10.00
2017,06,23,03,45,10.00
2017,06,23,03,46,10.00
2017,06,23,03,47,10.00
2017,06,23,03,48,10.00
2017,06,23,03,49,9.90
2017,06,23,03,50,9.90
2017,06,23,03,51,9.90
2017,06,23,03,52,9.90
2017,06,23,03,53,9.90
2017,06,23,03,54,9.90
2017,06,23,03,55,9.90
2017,06,23,03,56,9.90
2017,06,23,03,57,9.90
2017,06,23,03,58,9.90
2017,06,23,03,59,9.90
2017,06,23,04,00,9.90
2017,06,23,04,01,9.90
2017,06,23,04,02,9.90
2017,06,23,04,03,9.90
2017,06,23,04,04,9.80
2017,06,23,04,05,9.80
2017,06,23,04,06,9.80
2017,06,23,04,07,9.80
2017,06,23,04,08,9.80
2017,06,23,04,09,9.80
2017,06,23,04,10,9.80
2017,06,23,04,11,9.80
2017,06,23,04,12,9.80
2017,06,23,04,13,9.70
2017,06,23,04,14,9.70
2017,06,23,04,15,9.70
2017,06,23,04,16,9.70
2017,06,23,04,17,9.70
2017,06,23,04,18,9.70
2017,06,23,04,19,9.70
2017,06,23,04,20,9.70
2017,06,23,04,21,9.70
2017,06,23,04,22,9.70
2017,06,23,04,23,9.60
2017,06,23,04,24,9.60
2017,06,23,04,25,9.60
2017,06,23,04,26,9.60
2017,06,23,04,27,9.60
2017,06,23,04,28,9.60
2017,06,23,04,29,9.50
2017,06,23,04,30,9.50
2017,06,23,04,31,9.50
2017,06,23,04,32,9.40
2017,06,23,04,33,9.40
2017,06,23,04,34,9.40
2017,06,23,04,35,9.40
2017,06,23,04,36,9.40
2017,06,23,04,37,9.40
2017,06,23,04,38,9.40
2017,06,23,04,39,9.40
2017,06,23,04,40,9.40
2017,06,23,04,41,9.40
2017,06,23,04,42,9.30
2017,06,23,04,43,9.30
2017,06,23,04,44,9.30
2017,06,23,04,45,9.30
2017,06,23,04,46,9.30
2017,06,23,04,47,9.30
2017,06,23,04,48,9.30
2017,06,23,04,49,9.30
2017,06,23,04,50,9.30
2017,06,23,04,51,9.30
2017,06,23,04,52,9.30
2017,06,23,04,53,9.30
2017,06,23,04,54,9.30
2017,06,23,04,55,9.30
2017,06,23,04,56,9.30
2017,06,23,04,57,9.30
2017,06,23,04,58,9.30
2017,06,23,04,59,9.30
2017,06,23,05,00,9.40
2017,06,23,05,01,9.40
2017,06,23,05,02,9.40
2017,06,23,05,03,9.40
2017,06,23,05,04,9.40
2017,06,23,05,05,9.40
2017,06,23,05,06,9.40
2017,06,23,05,07,9.40
2017,06,23,05,08,9.40
2017,06,23,05,09,9.40
2017,06,23,05,10,9.40
2017,06,23,05,11,9.30
2017,06,23,05,12,9.30
2017,06,23,05,13,9.30
2017,06,23,05,14,9.30
2017,06,23,05,15,9.30
2017,06,23,05,16,9.30
2017,06,23,05,17,9.30
2017,06,23,05,18,9.30
2017,06,23,05,19,9.30
2017,06,23,05,20,9.30
2017,06,23,05,21,9.30
2017,06,23,05,22,9.30
2017,06,23,05,23,9.30
2017,06,23,05,24,9.30
2017,06,23,05,25,9.30
2017,06,23,05,26,9.30
2017,06,23,05,27,9.30
2017,06,23,05,28,9.30
2017,06,23,05,29,9.30
2017,06,23,05,30,9.20
2017,06,23,05,31,9.20
2017,06,23,05,32,9.20
2017,06,23,05,33,9.20
2017,06,23,05,34,9.20
2017,06,23,05,35,9.20
2017,06,23,05,36,9.20
2017,06,23,05,37,9.20
2017,06,23,05,38,9.20
2017,06,23,05,39,9.20
2017,06,23,05,40,9.20
2017,06,23,05,41,9.20
2017,06,23,05,42,9.20
2017,06,23,05,43,9.20
2017,06,23,05,44,9.20
2017,06,23,05,45,9.20
2017,06,23,05,46,9.20
2017,06,23,05,47,9.20
2017,06,23,05,48,9.20
2017,06,23,05,49,9.20
2017,06,23,05,50,9.20
2017,06,23,05,51,9.20
2017,06,23,05,52,9.30
2017,06,23,05,53,9.30
2017,06,23,05,54,9.30
2017,06,23,05,55,9.30
2017,06,23,05,56,9.30
2017,06,23,05,57,9.30
2017,06,23,05,58,9.30
2017,06,23,05,59,9.30
2017,06,23,06,00,9.30
2017,06,23,06,01,9.30
2017,06,23,06,02,9.30
2017,06,23,06,03,9.30
2017,06,23,06,04,9.30
2017,06,23,06,05,9.30
2017,06,23,06,06,9.30
2017,06,23,06,07,9.30
2017,06,23,06,08,9.30
2017,06,23,06,09,9.40
2017,06,23,06,10,9.40
2017,06,23,06,11,9.40
2017,06,23,06,12,9.40
2017,06,23,06,13,9.40
2017,06,23,06,14,9.40
2017,06,23,06,15,9.50
2017,06,23,06,16,9.50
2017,06,23,06,17,9.50
2017,06,23,06,18,9.60
2017,06,23,06,19,9.60
2017,06,23,06,20,9.60
2017,06,23,06,21,9.70
2017,06,23,06,22,9.70
2017,06,23,06,23,9.70
2017,06,23,06,24,9.80
2017,06,23,06,25,9.80
2017,06,23,06,26,9.90
2017,06,23,06,27,9.90
2017,06,23,06,28,9.90
2017,06,23,06,29,10.00
2017,06,23,06,30,10.00
2017,06,23,06,31,10.10
2017,06,23,06,32,10.10
2017,06,23,06,33,10.10
2017,06,23,06,34,10.10
2017,06,23,06,35,10.20
2017,06,23,06,36,10.20
2017,06,23,06,37,10.20
2017,06,23,06,38,10.20
2017,06,23,06,39,10.30
2017,06,23,06,40,10.30
2017,06,23,06,41,10.40
2017,06,23,06,42,10.50
2017,06,23,06,43,10.50
2017,06,23,06,44,10.60
2017,06,23,06,45,10.60
2017,06,23,06,46,10.70
2017,06,23,06,47,10.70
2017,06,23,06,48,10.70
2017,06,23,06,49,10.80
2017,06,23,06,50,10.80
2017,06,23,06,51,10.90
2017,06,23,06,52,10.90
2017,06,23,06,53,11.00
2017,06,23,06,54,11.10
2017,06,23,06,55,11.10
2017,06,23,06,56,11.20
2017,06,23,06,57,11.20
2017,06,23,06,58,11.30
2017,06,23,06,59,11.30
2017,06,23,07,00,11.30
2017,06,23,07,01,11.40
2017,06,23,07,02,11.40
2017,06,23,07,03,11.40
2017,06,23,07,04,11.50
2017,06,23,07,05,11.50
2017,06,23,07,06,11.60
2017,06,23,07,07,11.60
2017,06,23,07,08,11.70
2017,06,23,07,09,11.80
2017,06,23,07,10,11.90
2017,06,23,07,11,12.00
2017,06,23,07,12,12.10
2017,06,23,07,13,12.20
2017,06,23,07,14,12.30
2017,06,23,07,15,12.40
2017,06,23,07,16,12.50
2017,06,23,07,17,12.70
2017,06,23,07,18,12.80
2017,06,23,07,19,12.90
2017,06,23,07,20,13.10
2017,06,23,07,21,13.10
2017,06,23,07,22,13.30
2017,06,23,07,23,13.40
2017,06,23,07,24,13.40
2017,06,23,07,25,13.50
2017,06,23,07,26,13.60
2017,06,23,07,27,13.70
2017,06,23,07,28,13.70
2017,06,23,07,29,13.70
2017,06,23,07,30,13.80
2017,06,23,07,31,13.80
2017,06,23,07,32,13.90
2017,06,23,07,33,14.00
2017,06,23,07,34,14.10
2017,06,23,07,35,14.20
2017,06,23,07,36,14.30
2017,06,23,07,37,14.40
2017,06,23,07,38,14.50
2017,06,23,07,39,14.60
2017,06,23,07,40,14.70
2017,06,23,07,41,14.70
2017,06,23,07,42,14.80
2017,06,23,07,43,14.90
2017,06,23,07,44,14.90
2017,06,23,07,45,15.00
2017,06,23,07,46,15.10
2017,06,23,07,47,15.10
2017,06,23,07,48,15.20
2017,06,23,07,49,15.30
2017,06,23,07,50,15.40
2017,06,23,07,51,15.40
2017,06,23,07,52,15.50
2017,06,23,07,53,15.50
2017,06,23,07,54,15.60
2017,06,23,07,55,15.70
2017,06,23,07,56,15.80
2017,06,23,07,57,15.80
2017,06,23,07,58,15.90
2017,06,23,07,59,16.00
2017,06,23,08,00,16.00
2017,06,23,08,01,16.10
2017,06,23,08,02,16.20
2017,06,23,08,03,16.30
2017,06,23,08,04,16.40
2017,06,23,08,05,16.40
2017,06,23,08,06,16.50
2017,06,23,08,07,16.60
2017,06,23,08,08,16.70
2017,06,23,08,09,16.80
2017,06,23,08,10,16.80
2017,06,23,08,11,16.90
2017,06,23,08,12,17.00
2017,06,23,08,13,17.10
2017,06,23,08,14,17.20
2017,06,23,08,15,17.20
2017,06,23,08,16,17.30
2017,06,23,08,17,17.40
2017,06,23,08,18,17.40
2017,06,23,08,19,17.50
2017,06,23,08,20,17.60
2017,06,23,08,21,17.60
2017,06,23,08,22,17.70
2017,06,23,08,23,17.70
2017,06,23,08,24,17.70
2017,06,23,08,25,17.80
2017,06,23,08,26,17.80
2017,06,23,08,27,17.90
2017,06,23,08,28,17.90
2017,06,23,08,29,18.00
2017,06,23,08,30,18.00
2017,06,23,08,31,18.00
2017,06,23,08,32,18.10
2017,06,23,08,33,18.20
2017,06,23,08,34,18.20
2017,06,23,08,35,18.30
2017,06,23,08,36,18.30
2017,06,23,08,37,18.40
2017,06,23,08,38,18.40
2017,06,23,08,39,18.40
2017,06,23,08,40,18.50
2017,06,23,08,41,18.50
2017,06,23,08,42,18.50
2017,06,23,08,43,18.50
2017,06,23,08,44,18.50
2017,06,23,08,45,18.60
2017,06,23,08,46,18.60
2017,06,23,08,47,18.60
2017,06,23,08,48,18.60
2017,06,23,08,49,18.70
2017,06,23,08,50,18.70
2017,06,23,08,51,18.70
2017,06,23,08,52,18.70
2017,06,23,08,53,18.70
2017,06,23,08,54,18.60
2017,06,23,08,55,18.60
2017,06,23,08,56,18.60
2017,06,23,08,57,18.60
2017,06,23,08,58,18.70
2017,06,23,08,59,18.70
2017,06,23,09,00,18.70
2017,06,23,09,01,18.70
2017,06,23,09,02,18.70
2017,06,23,09,03,18.80
2017,06,23,09,04,18.80
2017,06,23,09,05,18.90
2017,06,23,09,06,18.90
2017,06,23,09,07,18.90
2017,06,23,09,08,18.90
2017,06,23,09,09,18.90
2017,06,23,09,10,19.00
2017,06,23,09,11,19.00
2017,06,23,09,12,19.00
2017,06,23,09,13,19.00
2017,06,23,09,14,19.00
2017,06,23,09,15,19.00
2017,06,23,09,16,18.90
2017,06,23,09,17,18.90
2017,06,23,09,18,18.90
2017,06,23,09,19,18.90
2017,06,23,09,20,18.80
2017,06,23,09,21,18.80
2017,06,23,09,22,18.90
2017,06,23,09,23,18.90
2017,06,23,09,24,18.90
2017,06,23,09,25,19.00
2017,06,23,09,26,19.10
2017,06,23,09,27,19.10
2017,06,23,09,28,19.20
2017,06,23,09,29,19.20
2017,06,23,09,30,19.20
2017,06,23,09,31,19.20
2017,06,23,09,32,19.30
2017,06,23,09,33,19.30
2017,06,23,09,34,19.30
2017,06,23,09,35,19.30
2017,06,23,09,36,19.40
2017,06,23,09,37,19.40
2017,06,23,09,38,19.40
2017,06,23,09,39,19.40
2017,06,23,09,40,19.50
2017,06,23,09,41,19.60
2017,06,23,09,42,19.70
2017,06,23,09,43,19.80
2017,06,23,09,44,19.80
2017,06,23,09,45,19.80
2017,06,23,09,46,19.90
2017,06,23,09,47,19.90
2017,06,23,09,48,19.90
2017,06,23,09,49,19.90
2017,06,23,09,50,19.90
2017,06,23,09,51,19.80
2017,06,23,09,52,19.80
2017,06,23,09,53,19.80
2017,06,23,09,54,19.80
2017,06,23,09,55,19.80
2017,06,23,09,56,19.90
2017,06,23,09,57,19.90
2017,06,23,09,58,19.90
2017,06,23,09,59,19.90
2017,06,23,10,00,20.00
2017,06,23,10,01,20.00
2017,06,23,10,02,20.10
2017,06,23,10,03,20.10
2017,06,23,10,04,20.10
2017,06,23,10,05,20.10
2017,06,23,10,06,20.10
2017,06,23,10,07,20.10
2017,06,23,10,08,20.10
2017,06,23,10,09,20.10
2017,06,23,10,10,20.10
2017,06,23,10,11,20.10
2017,06,23,10,12,20.10
2017,06,23,10,13,20.10
2017,06,23,10,14,20.10
2017,06,23,10,15,20.10
2017,06,23,10,16,20.20
2017,06,23,10,17,20.20
2017,06,23,10,18,20.20
2017,06,23,10,19,20.20
2017,06,23,10,20,20.20
2017,06,23,10,21,20.10
2017,06,23,10,22,20.10
2017,06,23,10,23,20.10
2017,06,23,10,24,20.10
2017,06,23,10,25,20.10
2017,06,23,10,26,20.10
2017,06,23,10,27,20.10
2017,06,23,10,28,20.10
2017,06,23,10,29,20.10
2017,06,23,10,30,20.20
2017,06,23,10,31,20.20
2017,06,23,10,32,20.20
2017,06,23,10,33,20.20
2017,06,23,10,34,20.30
2017,06,23,10,35,20.30
2017,06,23,10,36,20.40
2017,06,23,10,37,20.40
2017,06,23,10,38,20.40
2017,06,23,10,39,20.40
2017,06,23,10,40,20.40
2017,06,23,10,41,20.50
2017,06,23,10,42,20.50
2017,06,23,10,43,20.50
2017,06,23,10,44,20.50
2017,06,23,10,45,20.50
2017,06,23,10,46,20.60
2017,06,23,10,47,20.60
2017,06,23,10,48,20.60
2017,06,23,10,49,20.70
2017,06,23,10,50,20.70
2017,06,23,10,51,20.70
2017,06,23,10,52,20.70
2017,06,23,10,53,20.80
2017,06,23,10,54,20.80
2017,06,23,10,55,20.80
2017,06,23,10,56,20.80
2017,06,23,10,57,20.80
2017,06,23,10,58,20.80
2017,06,23,10,59,20.80
2017,06,23,11,00,20.80
2017,06,23,11,01,20.90
2017,06,23,11,02,20.90
2017,06,23,11,03,20.90
2017,06,23,11,04,21.00
2017,06,23,11,05,21.00
2017,06,23,11,06,21.10
2017,06,23,11,07,21.10
2017,06,23,11,08,21.10
2017,06,23,11,09,21.10
2017,06,23,11,10,21.10
2017,06,23,11,11,21.00
2017,06,23,11,12,20.90
2017,06,23,11,13,20.90
2017,06,23,11,14,20.80
2017,06,23,11,15,20.70
2017,06,23,11,16,20.70
2017,06,23,11,17,20.60
2017,06,23,11,18,20.60
2017,06,23,11,19,20.60
2017,06,23,11,20,20.60
2017,06,23,11,21,20.60
2017,06,23,11,22,20.60
2017,06,23,11,23,20.60
2017,06,23,11,24,20.60
2017,06,23,11,25,20.70
2017,06,23,11,26,20.80
2017,06,23,11,27,20.80
2017,06,23,11,28,20.90
2017,06,23,11,29,20.90
2017,06,23,11,30,21.00
2017,06,23,11,31,21.10
2017,06,23,11,32,21.10
2017,06,23,11,33,21.20
2017,06,23,11,34,21.30
2017,06,23,11,35,21.40
2017,06,23,11,36,21.50
2017,06,23,11,37,21.50
2017,06,23,11,38,21.60
2017,06,23,11,39,21.60
2017,06,23,11,40,21.60
2017,06,23,11,41,21.60
2017,06,23,11,42,21.70
2017,06,23,11,43,21.70
2017,06,23,11,44,21.80
2017,06,23,11,45,21.90
2017,06,23,11,46,21.90
2017,06,23,11,47,21.90
2017,06,23,11,48,21.90
2017,06,23,11,49,22.00
2017,06,23,11,50,22.00
2017,06,23,11,51,22.10
2017,06,23,11,52,22.20
2017,06,23,11,53,22.30
2017,06,23,11,54,22.40
2017,06,23,11,55,22.50
2017,06,23,11,56,22.60
2017,06,23,11,57,22.60
2017,06,23,11,58,22.60
2017,06,23,11,59,22.60
2017,06,23,12,00,22.60
2017,06,23,12,01,22.60
2017,06,23,12,02,22.60
2017,06,23,12,03,22.50
2017,06,23,12,04,22.50
2017,06,23,12,05,22.40
2017,06,23,12,06,22.40
2017,06,23,12,07,22.40
2017,06,23,12,08,22.40
2017,06,23,12,09,22.30
2017,06,23,12,10,22.30
2017,06,23,12,11,22.30
2017,06,23,12,12,22.30
2017,06,23,12,13,22.20
2017,06,23,12,14,22.20
2017,06,23,12,15,22.20
2017,06,23,12,16,22.20
2017,06,23,12,17,22.20
2017,06,23,12,18,22.20
2017,06,23,12,19,22.20
2017,06,23,12,20,22.20
2017,06,23,12,21,22.20
2017,06,23,12,22,22.10
2017,06,23,12,23,22.10
2017,06,23,12,24,22.10
2017,06,23,12,25,22.10
2017,06,23,12,26,22.20
2017,06,23,12,27,22.20
2017,06,23,12,28,22.20
2017,06,23,12,29,22.20
2017,06,23,12,30,22.30
2017,06,23,12,31,22.30
2017,06,23,12,32,22.30
2017,06,23,12,33,22.30
2017,06,23,12,34,22.40
2017,06,23,12,35,22.50
2017,06,23,12,36,22.50
2017,06,23,12,37,22.50
2017,06,23,12,38,22.60
2017,06,23,12,39,22.70
2017,06,23,12,40,22.80
2017,06,23,12,41,22.80
2017,06,23,12,42,22.80
2017,06,23,12,43,22.80
2017,06,23,12,44,22.90
2017,06,23,12,45,23.00
2017,06,23,12,46,23.10
2017,06,23,12,47,23.20
2017,06,23,12,48,23.30
2017,06,23,12,49,23.30
2017,06,23,12,50,23.30
2017,06,23,12,51,23.40
2017,06,23,12,52,23.40
2017,06,23,12,53,23.40
2017,06,23,12,54,23.40
2017,06,23,12,55,23.30
2017,06,23,12,56,23.30
2017,06,23,12,57,23.30
2017,06,23,12,58,23.30
2017,06,23,12,59,23.40
2017,06,23,13,00,23.40
2017,06,23,13,01,23.40
2017,06,23,13,02,23.40
2017,06,23,13,03,23.40
2017,06,23,13,04,23.40
2017,06,23,13,05,23.30
2017,06,23,13,06,23.30
2017,06,23,13,07,23.40
2017,06,23,13,08,23.40
2017,06,23,13,09,23.50
2017,06,23,13,10,23.60
2017,06,23,13,11,23.70
2017,06,23,13,12,23.70
2017,06,23,13,13,23.80
2017,06,23,13,14,23.80
2017,06,23,13,15,23.90
2017,06,23,13,16,23.90
2017,06,23,13,17,24.00
2017,06,23,13,18,24.00
2017,06,23,13,19,24.00
2017,06,23,13,20,24.00
2017,06,23,13,21,24.00
2017,06,23,13,22,24.00
2017,06,23,13,23,24.00
2017,06,23,13,24,23.90
2017,06,23,13,25,23.90
2017,06,23,13,26,23.90
2017,06,23,13,27,23.80
2017,06,23,13,28,23.80
2017,06,23,13,29,23.80
2017,06,23,13,30,23.80
2017,06,23,13,31,23.80
2017,06,23,13,32,23.80
2017,06,23,13,33,23.90
2017,06,23,13,34,23.90
2017,06,23,13,35,24.00
2017,06,23,13,36,24.00
2017,06,23,13,37,24.00
2017,06,23,13,38,24.00
2017,06,23,13,39,24.00
2017,06,23,13,40,24.00
2017,06,23,13,41,24.00
2017,06,23,13,42,24.00
2017,06,23,13,43,24.00
2017,06,23,13,44,24.00
2017,06,23,13,45,24.00
2017,06,23,13,46,24.00
2017,06,23,13,47,24.00
2017,06,23,13,48,24.10
2017,06,23,13,49,24.10
2017,06,23,13,50,24.10
2017,06,23,13,51,24.20
2017,06,23,13,52,24.20
2017,06,23,13,53,24.20
2017,06,23,13,54,24.20
2017,06,23,13,55,24.30
2017,06,23,13,56,24.30
2017,06,23,13,57,24.30
2017,06,23,13,58,24.40
2017,06,23,13,59,24.50
2017,06,23,14,00,24.60
2017,06,23,14,01,24.60
2017,06,23,14,02,24.70
2017,06,23,14,03,24.70
2017,06,23,14,04,24.70
2017,06,23,14,05,24.70
2017,06,23,14,06,24.70
2017,06,23,14,07,24.70
2017,06,23,14,08,24.70
2017,06,23,14,09,24.70
2017,06,23,14,10,24.70
2017,06,23,14,11,24.70
2017,06,23,14,12,24.70
2017,06,23,14,13,24.70
2017,06,23,14,14,24.80
2017,06,23,14,15,24.80
2017,06,23,14,16,24.80
2017,06,23,14,17,24.70
2017,06,23,14,18,24.70
2017,06,23,14,19,24.60
2017,06,23,14,20,24.50
2017,06,23,14,21,24.50
2017,06,23,14,22,24.40
2017,06,23,14,23,24.30
2017,06,23,14,24,24.30
2017,06,23,14,25,24.20
2017,06,23,14,26,24.20
2017,06,23,14,27,24.10
2017,06,23,14,28,24.10
2017,06,23,14,29,24.00
2017,06,23,14,30,24.00
2017,06,23,14,31,23.90
2017,06,23,14,32,23.90
2017,06,23,14,33,23.90
2017,06,23,14,34,23.80
2017,06,23,14,35,23.80
2017,06,23,14,36,23.80
2017,06,23,14,37,23.80
2017,06,23,14,38,23.80
2017,06,23,14,39,23.80
2017,06,23,14,40,23.80
2017,06,23,14,41,23.80
2017,06,23,14,42,23.80
2017,06,23,14,43,23.80
2017,06,23,14,44,23.80
2017,06,23,14,45,23.80
2017,06,23,14,46,23.80
2017,06,23,14,47,23.80
2017,06,23,14,48,23.80
2017,06,23,14,49,23.80
2017,06,23,14,50,23.90
2017,06,23,14,51,23.90
2017,06,23,14,52,24.00
2017,06,23,14,53,24.10
2017,06,23,14,54,24.10
2017,06,23,14,55,24.10
2017,06,23,14,56,24.20
2017,06,23,14,57,24.20
2017,06,23,14,58,24.20
2017,06,23,14,59,24.20
2017,06,23,15,00,24.10
2017,06,23,15,01,24.10
2017,06,23,15,02,24.10
2017,06,23,15,03,24.10
2017,06,23,15,04,24.10
2017,06,23,15,05,24.00
2017,06,23,15,06,24.00
2017,06,23,15,07,24.00
2017,06,23,15,08,24.00
2017,06,23,15,09,24.00
2017,06,23,15,10,24.10
2017,06,23,15,11,24.20
2017,06,23,15,12,24.30
2017,06,23,15,13,24.30
2017,06,23,15,14,24.40
2017,06,23,15,15,24.50
2017,06,23,15,16,24.60
2017,06,23,15,17,24.60
2017,06,23,15,18,24.70
2017,06,23,15,19,24.70
2017,06,23,15,20,24.80
2017,06,23,15,21,24.80
2017,06,23,15,22,24.80
2017,06,23,15,23,24.80
2017,06,23,15,24,24.70
2017,06,23,15,25,24.70
2017,06,23,15,26,24.70
2017,06,23,15,27,24.70
2017,06,23,15,28,24.70
2017,06,23,15,29,24.70
2017,06,23,15,30,24.80
2017,06,23,15,31,24.80
2017,06,23,15,32,24.80
2017,06,23,15,33,24.80
2017,06,23,15,34,24.80
2017,06,23,15,35,24.90
2017,06,23,15,36,25.00
2017,06,23,15,37,25.10
2017,06,23,15,38,25.20
2017,06,23,15,39,25.30
2017,06,23,15,40,25.30
2017,06,23,15,41,25.30
2017,06,23,15,42,25.30
2017,06,23,15,43,25.40
2017,06,23,15,44,25.30
2017,06,23,15,45,25.30
2017,06,23,15,46,25.30
2017,06,23,15,47,25.30
2017,06,23,15,48,25.30
2017,06,23,15,49,25.20
2017,06,23,15,50,25.20
2017,06,23,15,51,25.20
2017,06,23,15,52,25.20
2017,06,23,15,53,25.30
2017,06,23,15,54,25.30
2017,06,23,15,55,25.40
2017,06,23,15,56,25.40
2017,06,23,15,57,25.50
2017,06,23,15,58,25.60
2017,06,23,15,59,25.60
2017,06,23,16,00,25.70
2017,06,23,16,01,25.70
2017,06,23,16,02,25.80
2017,06,23,16,03,25.80
2017,06,23,16,04,25.70
2017,06,23,16,05,25.60
2017,06,23,16,06,25.60
2017,06,23,16,07,25.50
2017,06,23,16,08,25.40
2017,06,23,16,09,25.40
2017,06,23,16,10,25.30
2017,06,23,16,11,25.20
2017,06,23,16,12,25.20
2017,06,23,16,13,25.10
2017,06,23,16,14,25.00
2017,06,23,16,15,25.00
2017,06,23,16,16,24.90
2017,06,23,16,17,24.90
2017,06,23,16,18,24.80
2017,06,23,16,19,24.80
2017,06,23,16,20,24.80
2017,06,23,16,21,24.80
2017,06,23,16,22,24.80
2017,06,23,16,23,24.90
2017,06,23,16,24,24.90
2017,06,23,16,25,24.90
2017,06,23,16,26,25.00
2017,06,23,16,27,25.10
2017,06,23,16,28,25.20
2017,06,23,16,29,25.20
2017,06,23,16,30,25.20
2017,06,23,16,31,25.20
2017,06,23,16,32,25.20
2017,06,23,16,33,25.20
2017,06,23,16,34,25.20
2017,06,23,16,35,25.30
2017,06,23,16,36,25.20
2017,06,23,16,37,25.30
2017,06,23,16,38,25.30
2017,06,23,16,39,25.30
2017,06,23,16,40,25.30
2017,06,23,16,41,25.30
2017,06,23,16,42,25.30
2017,06,23,16,43,25.30
2017,06,23,16,44,25.30
2017,06,23,16,45,25.30
2017,06,23,16,46,25.30
2017,06,23,16,47,25.30
2017,06,23,16,48,25.30
2017,06,23,16,49,25.30
2017,06,23,16,50,25.30
2017,06,23,16,51,25.30
2017,06,23,16,52,25.30
2017,06,23,16,53,25.30
2017,06,23,16,54,25.30
2017,06,23,16,55,25.30
2017,06,23,16,56,25.30
2017,06,23,16,57,25.30
2017,06,23,16,58,25.30
2017,06,23,16,59,25.30
2017,06,23,17,00,25.30
2017,06,23,17,01,25.40
2017,06,23,17,02,25.40
2017,06,23,17,03,25.50
2017,06,23,17,04,25.50
2017,06,23,17,05,25.60
2017,06,23,17,06,25.60
2017,06,23,17,07,25.70
2017,06,23,17,08,25.70
2017,06,23,17,09,25.70
2017,06,23,17,10,25.80
2017,06,23,17,11,25.80
2017,06,23,17,12,25.90
2017,06,23,17,13,25.80
2017,06,23,17,14,25.80
2017,06,23,17,15,25.80
2017,06,23,17,16,25.80
2017,06,23,17,17,25.80
2017,06,23,17,18,25.80
2017,06,23,17,19,25.80
2017,06,23,17,20,25.70
2017,06,23,17,21,25.70
2017,06,23,17,22,25.70
2017,06,23,17,23,25.60
2017,06,23,17,24,25.60
2017,06,23,17,25,25.50
2017,06,23,17,26,25.40